GW7465 Weather Reports


Display with metric or nautical units.
time (UTC)temp
F
wind
direction
speed
MPH
gust
MPH
rain 1hr
in
rain 24hr
in
rain mn
in
humidity
%
barometer
mb
20260831055501 61 141 2.0 6.0 0.07 0.00 0.16 93 1014.0
20260831055000 61 188 3.0 6.0 0.05 0.00 0.13 92 1014.2
20260831054501 61 171 2.0 6.0 0.02 0.00 0.11 92 1014.0
20260831054000 61 193 3.0 7.0 0.00 0.00 0.09 92 1013.8
20260831053501 60 192 2.0 4.0 0.00 0.00 0.09 92 1013.6
20260831053001 60 123 2.0 5.0 0.00 0.00 0.09 93 1013.4
20260831052501 60 140 2.0 5.0 0.00 0.00 0.09 92 1013.3
20260831052000 60 269 2.0 5.0 0.00 0.00 0.09 91 1013.1
20260831051501 60 176 2.0 6.0 0.00 0.00 0.09 92 1013.0
20260831051001 60 23 2.0 5.0 0.00 0.00 0.09 91 1013.0
20260831050500 60 188 2.0 4.0 0.00 0.00 0.09 91 1012.8
20260831050001 60 159 2.0 4.0 0.00 0.00 0.09 91 1013.0
20260831045500 60 164 1.0 4.0 0.08 0.00 0.09 91 1013.1
20260831045000 61 157 2.0 4.0 0.08 0.00 0.09 91 1013.3
20260831044500 61 87 2.0 5.0 0.07 0.00 0.08 90 1013.4
20260831044001 61 177 2.0 6.0 0.07 0.00 0.08 90 1013.5
20260831043500 61 172 3.0 7.0 0.07 0.00 0.08 89 1013.6
20260831043001 61 171 3.0 5.0 0.07 0.00 0.08 89 1013.7
20260831042500 61 315 1.0 4.0 0.07 0.00 0.08 89 1013.7
20260831042001 61 169 2.0 4.0 0.06 0.00 0.07 88 1013.7
20260831041500 62 159 3.0 10.0 0.06 0.00 0.06 87 1013.7
20260831041000 62 79 3.0 10.0 0.05 0.00 0.06 87 1013.9
20260831040501 63 160 3.0 9.0 0.03 0.00 0.04 84 1013.9
20260831040001 63 273 2.0 4.0 0.00 0.00 0.01 80 1013.6
20260831035500 63 255 1.0 2.0 0.00 0.00 0.00 79 1013.1
20260831035001 63 249 2.0 4.0 0.00 0.00 0.00 79 1012.7
20260831034500 63 170 2.0 5.0 0.00 0.00 0.00 79 1012.5
20260831034001 62 172 2.0 5.0 0.00 0.00 0.00 80 1012.3
20260831033500 62 200 1.0 2.0 0.00 0.00 0.00 80 1012.2
20260831033001 62 333 1.0 2.0 0.00 0.00 0.00 80 1012.3
20260831032500 62 37 1.0 2.0 0.00 0.00 0.00 80 1012.4
20260831032000 62 198 1.0 3.0 0.00 0.00 0.00 80 1012.4
20260831031500 62 6 1.0 1.0 0.00 0.00 0.00 80 1012.3
20260831031000 62 135 1.0 3.0 0.00 0.00 0.00 80 1012.2
20260831030500 62 339 1.0 2.0 0.00 0.00 0.00 79 1012.3
20260831030001 62 238 1.0 2.0 0.00 0.00 0.00 80 1012.3
20260831025500 62 246 1.0 4.0 0.00 0.00 0.00 80 1012.5
20260831025000 62 234 1.0 4.0 0.00 0.00 0.00 80 1012.7
20260831024501 61 240 1.0 3.0 0.00 0.00 0.00 81 1012.8
20260831024000 61 231 2.0 5.0 0.00 0.00 0.00 81 1012.9
20260831023500 60 304 1.0 3.0 0.00 0.00 0.00 82 1012.9
20260831023001 60 278 1.0 4.0 0.00 0.00 0.00 82 1012.9
20260831022501 60 93 1.0 2.0 0.00 0.00 0.00 83 1013.0
20260831022000 59 43 1.0 3.0 0.00 0.00 0.00 84 1012.9
20260831021500 59 267 1.0 2.0 0.00 0.00 0.00 85 1013.0
20260831021000 59 117 1.0 1.0 0.00 0.00 0.00 84 1013.0
20260831020501 59 315 0.0 1.0 0.00 0.00 0.00 84 1012.9
20260831020001 59 230 1.0 2.0 0.00 0.00 0.00 85 1012.9
20260831015500 58 282 1.0 3.0 0.00 0.00 0.00 86 1013.2
20260831015000 57 198 1.0 3.0 0.00 0.00 0.00 89 1013.3
20260831014500 57 224 0.0 0.0 0.00 0.00 0.00 89 1013.3
20260831014001 57 205 1.0 1.0 0.00 0.00 0.00 89 1013.3
20260831013500 57 49 1.0 2.0 0.00 0.00 0.00 89 1013.4
20260831013001 57 280 1.0 2.0 0.00 0.00 0.00 89 1013.5
20260831012501 57 221 0.0 1.0 0.00 0.00 0.00 89 1013.5
20260831012000 57 130 0.0 0.0 0.00 0.00 0.00 89 1013.5
20260831011501 57 133 1.0 1.0 0.00 0.00 0.00 88 1013.5
20260831011001 57 142 0.0 0.0 0.00 0.00 0.00 88 1013.5
20260831010501 57 242 0.0 1.0 0.00 0.00 0.00 87 1013.7
20260831010001 58 310 0.0 0.0 0.00 0.00 0.00 87 1013.7
20260831005500 58 309 0.0 0.0 0.00 0.00 0.00 87 1013.7
20260831005001 58 142 0.0 1.0 0.00 0.00 0.00 87 1013.8
20260831004500 58 300 0.0 0.0 0.00 0.00 0.00 87 1013.9
20260831004001 58 315 0.0 1.0 0.00 0.00 0.00 87 1013.9
20260831003500 58 217 0.0 0.0 0.00 0.00 0.00 87 1014.0
20260831003001 58 299 1.0 2.0 0.00 0.00 0.00 88 1014.0
20260831002501 58 117 1.0 1.0 0.00 0.00 0.00 88 1014.1
20260831002000 59 125 0.0 1.0 0.00 0.00 0.00 88 1014.2
20260831001500 59 311 1.0 1.0 0.00 0.00 0.00 89 1014.2
20260831001000 59 135 1.0 1.0 0.00 0.00 0.00 88 1014.2
20260831000501 59 164 0.0 1.0 0.00 0.00 0.00 89 1014.1
20260831000000 59 309 1.0 2.0 0.00 0.00 0.00 89 1014.2
20260830235500 59 230 0.0 0.0 0.00 0.00 0.00 89 1014.3
20260830235000 58 117 0.0 0.0 0.00 0.00 0.00 90 1014.4
20260830234500 58 205 1.0 1.0 0.00 0.00 0.00 90 1014.4
20260830234000 58 142 1.0 1.0 0.00 0.00 0.00 90 1014.4
20260830233501 58 154 0.0 0.0 0.00 0.00 0.00 90 1014.4
20260830233000 58 19 0.0 0.0 0.00 0.00 0.00 89 1014.4
20260830232500 58 130 0.0 1.0 0.00 0.00 0.00 89 1014.4
20260830232001 58 315 1.0 1.0 0.00 0.00 0.00 89 1014.5
20260830231501 59 160 0.0 0.0 0.00 0.00 0.00 88 1014.6
20260830231001 59 212 0.0 0.0 0.00 0.00 0.00 88 1014.7
20260830230500 59 135 0.0 1.0 0.00 0.00 0.00 88 1014.6
20260830230001 59 315 0.0 0.0 0.00 0.00 0.00 88 1014.7
20260830225501 59 224 1.0 1.0 0.00 0.00 0.00 88 1014.7
20260830225000 59 142 0.0 0.0 0.00 0.00 0.00 88 1014.6
20260830224501 59 135 0.0 0.0 0.00 0.00 0.00 88 1014.5
20260830224000 59 135 0.0 0.0 0.00 0.00 0.00 88 1014.6
20260830223501 59 154 0.0 0.0 0.00 0.00 0.00 88 1014.6
20260830223000 59 242 0.0 0.0 0.00 0.00 0.00 87 1014.6
20260830222501 59 246 0.0 0.0 0.00 0.00 0.00 87 1014.6
20260830222000 59 246 0.0 0.0 0.00 0.00 0.00 86 1014.7
20260830221500 60 246 0.0 0.0 0.00 0.00 0.00 86 1014.6
20260830221001 60 224 0.0 0.0 0.00 0.00 0.00 87 1014.6
20260830220500 60 141 0.0 1.0 0.00 0.00 0.00 87 1014.6
20260830220001 60 304 0.0 0.0 0.00 0.00 0.00 87 1014.6
20260830215501 60 304 0.0 0.0 0.00 0.00 0.00 86 1014.7
20260830215001 60 304 0.0 1.0 0.00 0.00 0.00 86 1014.6
20260830214501 60 129 0.0 0.0 0.00 0.00 0.00 86 1014.6
20260830214000 60 315 0.0 0.0 0.00 0.00 0.00 85 1014.6
20260830213501 60 315 0.0 0.0 0.00 0.00 0.00 85 1014.6
20260830213001 60 315 0.0 1.0 0.00 0.00 0.00 85 1014.6
20260830212500 60 315 0.0 0.0 0.00 0.00 0.00 84 1014.6
20260830212001 60 180 0.0 0.0 0.00 0.00 0.00 85 1014.7
20260830211501 60 180 0.0 0.0 0.00 0.00 0.00 84 1014.6
20260830211001 60 224 0.0 0.0 0.00 0.00 0.00 84 1014.7
20260830210501 61 135 0.0 0.0 0.00 0.00 0.00 83 1014.6
20260830210000 61 135 0.0 0.0 0.00 0.00 0.00 83 1014.7
20260830205501 61 135 0.0 0.0 0.00 0.00 0.00 83 1014.7
20260830205000 61 135 0.0 0.0 0.00 0.00 0.00 82 1014.6
20260830204500 61 224 0.0 0.0 0.00 0.00 0.00 82 1014.7
20260830204001 62 3 0.0 0.0 0.00 0.00 0.00 82 1014.7
20260830203501 62 224 0.0 0.0 0.00 0.00 0.00 82 1014.7
20260830203001 62 315 0.0 0.0 0.00 0.00 0.00 81 1014.7
20260830202501 62 304 0.0 0.0 0.00 0.00 0.00 81 1014.6
20260830202001 62 304 0.0 0.0 0.00 0.00 0.00 80 1014.6
20260830201501 62 304 0.0 0.0 0.00 0.00 0.00 80 1014.6
20260830201001 63 304 0.0 0.0 0.00 0.00 0.00 79 1014.6
20260830200501 63 135 0.0 0.0 0.00 0.00 0.00 79 1014.6
20260830200001 63 135 0.0 0.0 0.00 0.00 0.00 79 1014.6
20260830195501 63 217 0.0 0.0 0.00 0.00 0.00 79 1014.6
20260830195000 64 217 0.0 0.0 0.00 0.00 0.00 77 1014.6
20260830194501 64 217 0.0 0.0 0.00 0.00 0.00 78 1014.6
20260830194000 64 217 0.0 0.0 0.00 0.00 0.00 78 1014.6
20260830193500 64 135 0.0 0.0 0.00 0.00 0.00 77 1014.6
20260830193000 64 150 0.0 0.0 0.00 0.00 0.00 76 1014.6
20260830192501 64 150 0.0 0.0 0.00 0.00 0.00 75 1014.6
20260830192001 65 135 0.0 0.0 0.00 0.00 0.00 76 1014.5
20260830191501 65 135 0.0 0.0 0.00 0.00 0.00 75 1014.5
20260830191000 65 354 0.0 0.0 0.00 0.00 0.00 73 1014.5
20260830190501 65 354 0.0 0.0 0.00 0.00 0.00 74 1014.5
20260830190000 66 354 0.0 1.0 0.00 0.00 0.00 74 1014.4
20260830185500 66 147 0.0 0.0 0.00 0.00 0.00 72 1014.4
20260830185001 66 147 0.0 0.0 0.00 0.00 0.00 73 1014.3
20260830184500 66 224 0.0 0.0 0.00 0.00 0.00 71 1014.2
20260830184000 67 224 0.0 0.0 0.00 0.00 0.00 70 1014.2
20260830183501 67 322 0.0 0.0 0.00 0.00 0.00 70 1014.1
20260830183001 68 322 0.0 0.0 0.00 0.00 0.00 69 1014.0
20260830182501 68 129 0.0 0.0 0.00 0.00 0.00 69 1014.0
20260830182000 68 129 0.0 0.0 0.00 0.00 0.00 69 1014.0
20260830181501 69 242 0.0 0.0 0.00 0.00 0.00 68 1013.9
20260830181000 69 142 0.0 0.0 0.00 0.00 0.00 67 1013.9
20260830180501 70 142 0.0 0.0 0.00 0.00 0.00 66 1013.8
20260830180001 70 142 0.0 0.0 0.00 0.00 0.00 66 1013.8
20260830175500 71 326 0.0 0.0 0.00 0.00 0.00 65 1013.7
20260830175001 71 326 0.0 0.0 0.00 0.00 0.00 64 1013.7
20260830174501 72 315 0.0 0.0 0.00 0.00 0.00 62 1013.6
20260830174001 72 309 0.0 0.0 0.00 0.00 0.00 60 1013.5
20260830173500 73 135 0.0 0.0 0.00 0.00 0.00 59 1013.4
20260830173001 73 217 0.0 0.0 0.00 0.00 0.00 59 1013.4
20260830172501 74 224 0.0 1.0 0.00 0.00 0.00 57 1013.4
20260830172001 74 15 2.0 3.0 0.00 0.00 0.00 55 1013.3
20260830171501 75 12 2.0 5.0 0.00 0.00 0.00 54 1013.2
20260830171000 75 297 2.0 5.0 0.00 0.00 0.00 52 1013.1
20260830170501 75 333 2.0 4.0 0.00 0.00 0.00 51 1013.2
20260830170001 75 327 3.0 5.0 0.00 0.00 0.00 50 1013.1
20260830165501 75 329 2.0 3.0 0.00 0.00 0.00 51 1013.0
20260830165001 75 336 3.0 6.0 0.00 0.00 0.00 50 1013.1
20260830164500 76 329 2.0 5.0 0.00 0.00 0.00 50 1013.0
20260830164001 76 326 3.0 5.0 0.00 0.00 0.00 49 1013.0
20260830163500 76 333 3.0 6.0 0.00 0.00 0.00 49 1013.0
20260830163001 76 296 3.0 6.0 0.00 0.00 0.00 49 1013.0
20260830162501 77 310 4.0 8.0 0.00 0.00 0.00 50 1013.0
20260830162001 77 296 3.0 5.0 0.00 0.00 0.00 50 1013.0
20260830161501 77 343 5.0 9.0 0.00 0.00 0.00 49 1012.9
20260830161001 77 315 3.0 7.0 0.00 0.00 0.00 49 1012.9
20260830160500 77 319 2.0 4.0 0.00 0.00 0.00 48 1012.8
20260830160001 77 351 2.0 4.0 0.00 0.00 0.00 48 1012.7
20260830155501 78 321 4.0 7.0 0.00 0.00 0.00 47 1012.8
20260830155001 78 332 3.0 5.0 0.00 0.00 0.00 48 1012.8
20260830154500 78 330 2.0 4.0 0.00 0.00 0.00 47 1012.8
20260830154001 78 309 3.0 4.0 0.00 0.00 0.00 47 1012.8
20260830153501 78 291 3.0 5.0 0.00 0.00 0.00 47 1012.8
20260830153001 78 328 2.0 5.0 0.00 0.00 0.00 46 1012.8
20260830152501 78 285 3.0 5.0 0.00 0.00 0.00 45 1012.8
20260830152001 79 341 3.0 6.0 0.00 0.00 0.00 44 1012.8
20260830151501 79 268 2.0 5.0 0.00 0.00 0.00 43 1012.8
20260830151000 79 325 3.0 6.0 0.00 0.00 0.00 42 1012.8
20260830150501 79 321 3.0 9.0 0.00 0.00 0.00 42 1012.8
20260830150001 79 341 3.0 6.0 0.00 0.00 0.00 42 1012.8
20260830145501 79 325 3.0 7.0 0.00 0.00 0.00 43 1012.8
20260830145000 78 264 3.0 7.0 0.00 0.00 0.00 43 1012.8
20260830144502 79 344 3.0 7.0 0.00 0.00 0.00 43 1012.8
20260830144001 79 316 3.0 9.0 0.00 0.00 0.00 42 1012.8
20260830143501 80 273 3.0 6.0 0.00 0.00 0.00 42 1012.7
20260830143001 80 311 4.0 9.0 0.00 0.00 0.00 42 1012.7
20260830142501 79 324 3.0 7.0 0.00 0.00 0.00 43 1012.8
20260830142001 79 348 3.0 7.0 0.00 0.00 0.00 42 1012.9
20260830141501 80 319 3.0 7.0 0.00 0.00 0.00 41 1012.7
20260830141001 80 1 4.0 8.0 0.00 0.00 0.00 41 1012.7
20260830140501 80 310 4.0 12.0 0.00 0.00 0.00 41 1012.7
20260830140001 80 282 3.0 7.0 0.00 0.00 0.00 41 1012.7
20260830135501 80 298 5.0 9.0 0.00 0.00 0.00 41 1012.8
20260830135001 80 307 3.0 8.0 0.00 0.00 0.00 41 1012.7
20260830134501 80 275 3.0 9.0 0.00 0.00 0.00 42 1012.8
20260830134001 79 322 4.0 9.0 0.00 0.00 0.00 42 1012.8
20260830133501 80 301 4.0 12.0 0.00 0.00 0.00 42 1012.8
20260830133001 81 291 3.0 7.0 0.00 0.00 0.00 41 1012.7
20260830132501 81 199 3.0 8.0 0.00 0.00 0.00 41 1012.6
20260830132001 80 185 3.0 6.0 0.00 0.00 0.00 44 1012.7
20260830131501 79 314 3.0 7.0 0.00 0.00 0.00 49 1012.8
20260830131000 78 324 4.0 8.0 0.00 0.00 0.00 52 1012.8
20260830130501 78 322 2.0 6.0 0.00 0.00 0.00 53 1012.8
20260830130001 78 315 2.0 7.0 0.00 0.00 0.00 53 1012.9
20260830125501 77 308 3.0 7.0 0.00 0.00 0.00 54 1012.9
20260830125001 77 343 3.0 8.0 0.00 0.00 0.00 54 1013.0
20260830124501 77 24 3.0 5.0 0.00 0.00 0.00 54 1013.0
20260830124001 78 316 2.0 5.0 0.00 0.00 0.00 54 1013.0
20260830123501 78 322 2.0 3.0 0.00 0.00 0.00 56 1013.1
20260830123001 77 324 2.0 4.0 0.00 0.00 0.00 58 1013.2
20260830122501 76 32 2.0 4.0 0.00 0.00 0.00 58 1013.2
20260830122001 75 312 3.0 7.0 0.00 0.00 0.00 59 1013.3
20260830121501 76 340 3.0 6.0 0.00 0.00 0.00 59 1013.3
20260830121001 75 326 4.0 9.0 0.00 0.00 0.00 60 1013.2
20260830120501 74 308 3.0 5.0 0.00 0.00 0.00 63 1013.4
20260830120000 73 341 3.0 7.0 0.00 0.00 0.00 63 1013.3
20260830115500 74 289 2.0 6.0 0.00 0.00 0.00 63 1013.4
20260830115000 74 332 3.0 9.0 0.00 0.00 0.00 62 1013.4
20260830114500 74 353 3.0 5.0 0.00 0.00 0.00 62 1013.4
20260830114001 74 331 3.0 9.0 0.00 0.00 0.00 63 1013.4
20260830113501 74 310 4.0 7.0 0.00 0.00 0.00 63 1013.4
20260830113001 74 319 4.0 7.0 0.00 0.00 0.00 61 1013.3
20260830112500 75 190 3.0 9.0 0.00 0.00 0.00 59 1013.3
20260830112001 77 297 4.0 8.0 0.00 0.00 0.00 54 1013.2
20260830111500 77 180 2.0 7.0 0.00 0.00 0.00 52 1013.1
20260830111001 77 300 3.0 7.0 0.00 0.00 0.00 53 1013.1
20260830110500 77 327 4.0 11.0 0.00 0.00 0.00 53 1013.1
20260830110001 77 341 4.0 12.0 0.00 0.00 0.00 53 1013.1
20260830105501 76 167 4.0 8.0 0.00 0.00 0.00 54 1013.1
20260830105001 76 253 3.0 9.0 0.00 0.00 0.00 54 1013.0
20260830104501 76 344 3.0 9.0 0.00 0.00 0.00 55 1013.1
20260830104001 75 345 4.0 14.0 0.00 0.00 0.00 55 1013.1
20260830103501 75 345 3.0 10.0 0.00 0.00 0.00 55 1013.1
20260830103000 75 305 4.0 11.0 0.00 0.00 0.00 54 1013.1
20260830102501 75 349 4.0 11.0 0.00 0.00 0.00 54 1013.1
20260830102001 75 233 4.0 11.0 0.00 0.00 0.00 54 1013.2
20260830101501 76 290 5.0 14.0 0.00 0.00 0.00 53 1013.1
20260830101001 76 286 3.0 8.0 0.00 0.00 0.00 54 1013.2
20260830100501 76 173 4.0 12.0 0.00 0.00 0.00 54 1013.2
20260830100000 75 196 4.0 12.0 0.00 0.00 0.00 54 1013.2
20260830095500 75 209 5.0 11.0 0.00 0.00 0.00 53 1013.1
20260830095001 76 68 4.0 13.0 0.00 0.00 0.00 52 1013.2
20260830094501 76 137 5.0 14.0 0.00 0.00 0.00 53 1013.1
20260830094001 76 40 3.0 12.0 0.00 0.00 0.00 53 1013.1
20260830093501 76 203 3.0 9.0 0.00 0.00 0.00 53 1013.1
20260830093001 76 327 5.0 14.0 0.00 0.00 0.00 52 1013.2
20260830092501 77 163 4.0 10.0 0.00 0.00 0.00 52 1013.1
20260830092001 77 313 4.0 11.0 0.00 0.00 0.00 52 1013.1
20260830091501 76 186 4.0 10.0 0.00 0.00 0.00 53 1013.1
20260830091000 76 170 4.0 12.0 0.00 0.00 0.00 53 1013.0
20260830090501 76 208 4.0 10.0 0.00 0.00 0.00 54 1013.0
20260830090000 76 211 4.0 14.0 0.00 0.00 0.00 54 1013.0
20260830085501 75 300 4.0 10.0 0.00 0.00 0.00 56 1013.0
20260830085000 75 178 4.0 15.0 0.00 0.00 0.00 56 1013.0
20260830084501 75 226 3.0 8.0 0.00 0.00 0.00 56 1013.0
20260830084001 75 283 5.0 10.0 0.00 0.00 0.00 56 1013.0
20260830083500 75 341 5.0 13.0 0.00 0.00 0.00 56 1013.0
20260830083001 75 307 3.0 7.0 0.00 0.00 0.00 56 1013.0
20260830082500 75 240 4.0 11.0 0.00 0.00 0.00 56 1012.9
20260830082000 74 286 4.0 15.0 0.00 0.00 0.00 56 1013.0
20260830081500 74 272 6.0 15.0 0.00 0.00 0.00 56 1012.9
20260830081001 74 261 5.0 14.0 0.00 0.00 0.00 57 1013.0
20260830080501 74 196 6.0 12.0 0.00 0.00 0.00 57 1013.0
20260830080001 74 351 3.0 9.0 0.00 0.00 0.00 58 1013.0
20260830075500 74 335 4.0 11.0 0.00 0.00 0.00 58 1012.9
20260830075000 73 296 2.0 7.0 0.00 0.00 0.00 59 1013.0
20260830074501 73 158 5.0 12.0 0.00 0.00 0.00 59 1013.0
20260830074001 73 163 4.0 11.0 0.00 0.00 0.00 59 1012.9
20260830073500 73 207 3.0 9.0 0.00 0.00 0.00 60 1012.9
20260830073001 73 179 4.0 12.0 0.00 0.00 0.00 61 1012.9
20260830072500 73 135 4.0 14.0 0.00 0.00 0.00 61 1012.8
20260830072000 73 187 4.0 17.0 0.00 0.00 0.00 62 1012.8
20260830071500 73 184 5.0 13.0 0.00 0.00 0.00 62 1012.8
20260830071000 72 323 3.0 10.0 0.00 0.00 0.00 63 1012.7
20260830070501 72 175 3.0 8.0 0.00 0.00 0.00 63 1012.7
20260830070001 72 26 3.0 11.0 0.00 0.00 0.00 63 1012.6
20260830065501 71 200 4.0 9.0 0.00 0.00 0.00 64 1012.5
20260830065001 71 186 5.0 13.0 0.00 0.00 0.00 63 1012.5
20260830064500 71 223 4.0 10.0 0.00 0.00 0.00 64 1012.5
20260830064001 71 204 3.0 6.0 0.00 0.00 0.00 65 1012.5
20260830063500 70 189 3.0 9.0 0.00 0.00 0.00 65 1012.6
20260830063000 70 230 3.0 9.0 0.00 0.00 0.00 65 1012.5
20260830062500 70 279 3.0 13.0 0.00 0.00 0.00 66 1012.5
20260830062000 70 212 3.0 8.0 0.00 0.00 0.00 66 1012.5
20260830061500 69 81 1.0 5.0 0.00 0.00 0.00 67 1012.5
20260830061000 69 142 3.0 6.0 0.00 0.00 0.00 67 1012.5
20260830060501 68 87 3.0 7.0 0.00 0.00 0.00 68 1012.6
20260830060001 68 201 2.0 6.0 0.00 0.00 0.00 69 1012.6